www.pogodaiklimat.ru

Погода и климат >> Архив погоды >> Россия >> Якутия >> Пролив Санникова


ПОГОДА в Проливе Санникова

  • Прогноз погоды в Проливе Санникова
  • Монитор погоды в Проливе Санникова
  • Климат города

АРХИВ ПОГОДЫ в Проливе Санникова

Время (UTC), дата Ветер
(напр.,м/с)
 
Видим.   Явления Облачность Т
(С)
Тd
(С)
f
(%)
Тe
(С)
Тes
(С)
Комфортность P
(гПа)
Po
(гПа)
Тmin
(С)
Tmax
(С)
R
(мм)
R24
(мм)
S
(см)
18 10.12 ЮЗ 4 20 км 10/0
[Ac und]
-20.3 -23.6 75 -29 -29 1016.8 1014.8
21 10.12 ЮЗ 3 20 км 6/0
[Ac trans]
-21.7 -24.9 75 -30 -30 1016.4 1014.4
00 11.12 ЮЗ 3 20 км 4/0
[Ac trans]
-21.8 -25.0 75 -30 -30 1015.3 1013.3 -23.9 9
03 11.12 ЮЗ 3 20 км 4/0
[Ac trans]
-22.7 -25.9 75 -31 -31 опасность
обморожения
1014.4 1012.4
06 11.12 ЮЗ 3 20 км 4/0
[Ac trans]
-24.1 -28.1 69 -33 -33 опасность
обморожения
1013.1 1011.1
09 11.12 ЮЗ 3 20 км 3/0
[Ac trans]
-24.2 -28.1 70 -33 -33 опасность
обморожения
1012.1 1010.1
12 11.12 ЮЗ 5 20 км ясно -24.3 -28.2 70 -35 -35 опасность
обморожения
1010.4 1008.4 -21.8
15 11.12 ЮЗ 6 20 км позёмок {метель} ясно -25.0 -28.9 70 -37 -37 опасность
обморожения
1008.9 1006.9
18 11.12 ЮЗ 7
{10}
20 км позёмок {метель} ясно -25.1 -29.8 65 -38 -38 опасность
обморожения
1007.6 1005.6
21 11.12 ЮЗ 8
{11}
20 км позёмок {метель} 8/0
[Ci fib]
-24.1 -28.9 64 -38 -38 опасность
обморожения
1006.1 1004.1
00 12.12 ЮЗ 7
{11}
20 км позёмок {метель} 8/0
[Ci fib]
-23.3 -27.3 70 -36 -36 опасность
обморожения
1005.1 1003.1 -25.5 9
03 12.12 ЮЗ 7
{11}
20 км позёмок {метель} 9/0
[Ac trans]
-22.5 -26.5 70 -35 -35 опасность
обморожения
1004.1 1002.1
06 12.12 ЮЗ 8-10
{12}
4000 м слабый снег {метель} 10/0
[Ac und]
-21.5 -24.8 75 -34 -34 опасность
обморожения
1003.1 1001.1
09 12.12 ЮЗ 7
{11}
4000 м слабый снег {метель} 10/0
[Ac und]
-20.5 -23.8 75 -32 -32 опасность
обморожения
1002.5 1000.5
12 12.12 ЮЗ 7
{11}
20 км позёмок {снег, метель} 8/0
[Ac trans]
-20.8 -24.1 75 -33 -33 опасность
обморожения
1002.6 1000.6 -20.3 0.2
15 12.12 ЮЗ 8
{11}
20 км позёмок {метель} 10/0
[Ac trans Ci fib]
-21.1 -24.4 75 -34 -34 опасность
обморожения
1001.8 999.8
18 12.12 ЮЗ 8
{11}
20 км позёмок {метель} 10/0
[Ac trans Ci fib]
-22.0 -25.3 74 -35 -35 опасность
обморожения
1001.5 999.5
21 12.12 ЮЗ 4 20 км {метель} 8/0
[Ac trans Ci fib]
-22.7 -25.9 75 -32 -32 опасность
обморожения
1001.7 999.7
00 13.12 ЮЗ 4 20 км {метель} 10/0
[Ac und]
-20.8 -24.1 75 -30 -30 1002.4 1000.4 -22.9 11
03 13.12 ЮЗ 7
{11}
20 км позёмок {метель} 10/0
[Ac und]
-19.8 -22.4 80 -31 -31 опасность
обморожения
1001.4 999.4
06 13.12 ЮЗ 7
{11}
20 км позёмок {метель} 8/0
[Ac trans]
-19.1 -21.7 80 -31 -31 опасность
обморожения
1000.4 998.4
09 13.12 ЮЗ 8-10
{12}
4000 м слабый снег {метель} 10/0
[Ac und]
-17.5 -20.1 80 -29 -29 999.9 997.9
12 13.12 ЮЗ 10-12
{13}
4000 м метель {снег} 10/0
[Ac und]
-17.7 -20.3 80 -31 -31 опасность
обморожения
999.8 997.8 -17.3 0.0
15 13.12 ЮЗ 9-10
{14}
4000 м метель 9/0
[Ac trans]
-18.7 -21.3 80 -31 -31 опасность
обморожения
1000.9 998.9
18 13.12 ЮЗ 8
{13}
20 км позёмок {метель} 8/0
[Ac trans]
-21.8 -24.3 80 -35 -35 опасность
обморожения
1001.1 999.1
21 13.12 ЮЗ 8
{13}
20 км позёмок {метель} 6/0
[Ac trans]
-23.0 -26.3 74 -36 -36 опасность
обморожения
1000.7 998.7
00 14.12 Ю 9-10
{14}
20 км позёмок {метель} 3/0
[Ac trans]
-23.5 -26.8 74 -38 -38 опасность
обморожения
1000.2 998.2 -23.5 9
03 14.12 Ю 8-10
{13}
20 км позёмок {метель} 8/0
[Ac trans]
-23.1 -26.4 74 -36 -36 опасность
обморожения
999.7 997.7
06 14.12 Ю 8-10
{13}
20 км позёмок {метель} 8/0
[Ac trans]
-23.3 -27.3 70 -37 -37 опасность
обморожения
999.2 997.2
09 14.12 Ю 7
{10}
20 км позёмок {метель} 4/0
[Ac trans]
-23.1 -27.2 69 -36 -36 опасность
обморожения
999.0 997.0
12 14.12 Ю 7
{10}
20 км позёмок {метель} 3/0
[Ac trans]
-22.9 -26.9 70 -35 -35 опасность
обморожения
999.7 997.7 -22.7
15 14.12 Ю 7
{10}
4000 м слабый снег {метель} 10/0
[Ac As]
-22.1 -26.2 69 -34 -34 опасность
обморожения
999.2 997.2
18 14.12 Ю 7
{10}
4000 м слабый снег {метель} 10/0
[Ac und]
-21.0 -24.3 75 -33 -33 опасность
обморожения
999.7 997.7
21 14.12 Ю 5 20 км {снег, метель} 9/0
[Ac trans]
-22.5 -25.7 75 -33 -33 опасность
обморожения
1000.8 998.8
00 15.12 ЮВ 4 20 км {снег, метель} 6/0
[Ac trans]
-25.3 -29.3 69 -35 -35 опасность
обморожения
1001.8 999.8 -25.4 0.0 10
03 15.12 В 3 20 км 8/0
[Ac trans]
-27.3 -31.2 69 -36 -36 опасность
обморожения
1002.0 1000.0 -27.5
06 15.12 В 5 20 км 6/0
[Ac trans]
-27.1 -30.9 70 -39 -39 опасность
обморожения
1002.7 1000.7
09 15.12 В 5 20 км 10/0
[Ac und]
-26.9 -30.7 70 -39 -39 опасность
обморожения
1003.3 1001.3
12 15.12 В 3 20 км 6/0
[Ac trans]
-27.9 -32.5 65 -37 -37 опасность
обморожения
1003.9 1001.9 -25.3
15 15.12 В 4 20 км 9/0
[Ac trans Ci fib]
-28.7 -34.2 59 -40 -40 опасность
обморожения
1004.4 1002.3
18 15.12 В 3 20 км 9/0
[Ac trans Ci fib]
-28.4 -33.8 60 -38 -38 опасность
обморожения
1004.8 1002.7
21 15.12 В 4 20 км 3/0
[Ac trans]
-30.1 -36.4 54 -41 -41 опасность
обморожения
1005.4 1003.3
00 16.12 СВ 5 20 км 3/0
[Ac trans]
-31.3 -37.4 55 -44 -44 опасность
обморожения
1006.1 1004.0 -31.5 10
03 16.12 СВ 3 20 км 4/0
[Ac trans]
-31.9 -38.1 54 -42 -42 опасность
обморожения
1006.7 1004.6 -32.1
06 16.12 СВ 3 20 км 3/0
[Ac trans]
-32.7 -38.8 54 -43 -43 опасность
обморожения
1007.3 1005.2
09 16.12 СВ 4 20 км ясно -33.7 -39.6 55 -46 -46 опасность
обморожения
1007.6 1005.5
12 16.12 СВ 4 20 км ясно -33.9 -39.9 55 -46 -46 опасность
обморожения
1007.7 1005.6 -31.3
15 16.12 СВ 5 20 км ясно -33.9 -40.8 50 -47 -47 опасность
обморожения
1007.6 1005.5
18 16.12 СВ 5 20 км ясно -33.4 -39.3 55 -47 -47 опасность
обморожения
1007.5 1005.4
21 16.12 СВ 5 20 км ясно -33.2 -39.3 54 -47 -47 опасность
обморожения
1008.3 1006.2
00 17.12 СВ 5 20 км ясно -33.1 -39.1 55 -46 -46 опасность
обморожения
1008.3 1006.2 -34.1 10
03 17.12 СВ 5 20 км 8/0
[Ac trans]
-31.9 -38.1 54 -45 -45 опасность
обморожения
1008.1 1006.0
06 17.12 СВ 4 20 км 10/0
[Ac und]
-30.7 -36.8 55 -42 -42 опасность
обморожения
1008.4 1006.3
09 17.12 В 4 20 км 8/0
[Ac trans]
-29.7 -36.0 54 -41 -41 опасность
обморожения
1009.0 1006.9
12 17.12 В 4 20 км ясно -32.2 -38.3 54 -44 -44 опасность
обморожения
1009.4 1007.3 -29.5
15 17.12 СВ 4 20 км ясно -32.4 -38.6 54 -44 -44 опасность
обморожения
1009.8 1007.7

 

Местоположение метеостанции Пролив Санникова (Якутия, Россия): широта 74.67 долгота 138.90 высота над уровнем моря 15 м.

В архиве по умолчанию представлена погода в Проливе Санникова за последнюю неделю. Архивные данные за месяц целиком и за предыдущие месяцы, начиная с января 2011 года, Вы можете получить, выбрав интересующий диапазон дат из раскрывающегося списка и нажав кнопку "Ввод!".


*Определитесь, кто Вы:
робот инопланетянин человек

Внимание! Время в таблицах - всемирное. Для получения местного времени необходимо прибавить поправку, которая в Проливе Санникова равна 10 ч.

Смотрите также архив погоды в соседних городах и на ближайших метеорологических станциях:

Погода на Острове Котельный (Якутия, Россия) (151 км)
Погода на Мысе Кигилях (Якутия, Россия) (152 км)
Погода на Острову Жохова (Якутия, Россия) (422 км)
Погода на Мысе Быков (Якутия, Россия) (430 км)
Погода в Юбилейной (Якутия, Россия) (443 км)
Погода на Столб Острове (Якутия, Россия) (469 км)
Погода в Тикси (Якутия, Россия) (470 км)
Погода в Усть-Куйге (Якутия, Россия) (531 км)
Погода в Чокурдахе (Якутия, Россия) (537 км)
Погода в Тюмяти (Якутия, Россия) (577 км)

Пояснения к столбцам:

Ветер - указаны скорость ветра в м/с - средняя за 10 мин, порывы в срок и между сроками (в фигурных скобках) и направление, откуда дует ветер: С - северный, СВ - северо-восточный, В - восточный, ЮВ - юго-восточный, Ю - южный, ЮЗ - юго-западный, З - западный, СЗ - северо-западный.
Видимость - горизонтальная дальность видимости в метрах или километрах. При видимости от 1 до 10 км при отсутствии осадков обычно наблюдается дымка, при ухудшении видимости до 1 км и менее - туман. В сухую погоду видимость может ухудшаться дымом, пылью или мглою.
Явления - указаны атмосферные явления, наблюдавшиеся в срок или в последний час перед сроком; фигурными скобками обозначены явления, наблюдавшиеся между сроками (за 1-3 часа до срока); квадратными скобками обозначены град или гололедные отложения с указанием их диаметра в мм.
Облачность - указаны через наклонную черту общая и нижняя облачность в баллах и высота нижней границы облаков в метрах; квадратными скобками обозначены формы облаков: Ci - перистые, Cs - перисто-слоистые, Cc - перисто-кучевые, Ac - высококучевые, As - высокослоистые, Sc - слоисто-кучевые, Ns - слоисто-дождевые, Cu - кучевые, Cb - кучево-дождевые. Подробнее классификацию облаков см. в Атласе облаков (PDF).
T - Температура воздуха - температура, измеренная на высоте 2 м над землей.
Td - Температура точки росы - температура, при понижении до которой содержащийся в воздухе водяной пар достигнет насыщения.
f - Относительная влажность воздуха - влажноcть воздуха, измеренная на высоте 2 м над землей.
Te - Эффективная температура - температура, которую ощущает одетый по сезону человек в тени. Характеристика душности погоды. При расчете учитывается влияние влажности воздуха и скорости ветра на теплоощущения человека.
Tes - Эффективная температура на солнце - температура, которую ощущает человек, с поправкой на солнечный нагрев. Характеристика знойности погоды. Зависит от высоты солнца над горизонтом, облачности и скорости ветра. Ночью, в пасмурную погоду, а также при ветре 12 м/с и более поправка равна нулю.
P - Атмосферное давление - приведенное к уровню моря атмосферное давление.
Po - Атмосферное давление - измеренное на уровне метеостанции атмосферное давление.
Tmin - Минимальная температура - минимум температуры воздуха на высоте 2 м над землей.
Tmax - Максимальная температура - максимум температуры воздуха на высоте 2 м над землей.
R - Количество осадков - Количество выпавших осадков за период времени, мм. При наведении курсора мыши на число - период времени, за который выпало указанное количество осадков.
R24 - Количество осадков - Количество выпавших осадков за 24 часа, мм.
S - Снежный покров - Высота снежного покрова, см. При наведении курсора мыши на число - состояние снежного покрова и степень покрытия местности в баллах.